Погода в Монбельяре

Франция     47°30′24″N   6°48′36″E
темп.,
°C
ветер,
м/с
пор.,
м/с
влажн.,
%
обл.,
%
осадки,
мм/ч
давл.,
гПа
погр.,
м
17 апреля, сб
сб1723:00+1всв411765 0.0 1023444
02:00−1в310945 0.0 1023261
05:00−3в289814 0.0 1023184
08:00−1в389359 0.0 1023277
11:00+5всв576519 0.0 1022976
14:00+9всв6757100 0.0 10201592
17:00+8всв576180 0.1 10191350
20:00+6всв387283 0.1 1019344
18 апреля, вс
вс1823:00+1в228948 0.0 102110
02:00+1вюв229656 0.0 102117
05:00+3всв2695100 0.0 1020265
08:00+3всв3596100 0.1 1021465
11:00+4в248998 0.1 1022587
14:00+6вюв338495 0.3 1021584
17:00+7св237497 0.1 1020697
20:00+5в238880 0.3 102178
19 апреля, пн
пн1923:00+1вюв11948 0.0 102210
02:000вюв11945 0.0 102210
05:00−1юв119561 0.0 102110
08:00+2вюв119073 0.0 102172
11:00+7всв23726 0.0 1020570
14:00+11в345464 0.1 10181633
17:00+12всв235625 0.1 10171442
20:00+7вюв11755 0.1 101710
20 апреля, вт
вт2023:00+3ююв11865 0.0 101910
02:00+2ююв11898 0.0 101810
05:00+2юв118990 0.0 101811
08:00+5в11827 0.0 101785
11:00+10всв34675 0.0 1016650
14:00+13всв34536 0.0 10151492
17:00+14всв335410 0.0 10141509
20:00+9всв22776 0.1 101512
21 апреля, ср
ср2123:00+5вюв11895 0.0 101710
02:00+4юв11895 0.0 101710
05:00+3ююв11905 0.0 101810
08:00+5вюв01815 0.0 101842
11:00+12с11645 0.0 1018600
14:00+14зсз336070 0.7 10171388
17:00+13сз4570100 1.3 10171118
20:00+9ссз238284 1.9 101951